TimeCDT,TemperatureF,Dew PointF,Humidity,Sea Level PressureIn,VisibilityMPH,Wind Direction,Wind SpeedMPH,Gust SpeedMPH,PrecipitationIn,Events,Conditions,WindDirDegrees,DateUTC
12:00 AM,60.8,53.6,77,30.06,10.0,North,4.6,-,N/A,,Overcast,350,2013-07-03 05:00:00
12:52 AM,61.0,55.0,81,30.05,10.0,North,3.5,-,N/A,,Overcast,10,2013-07-03 05:52:00
1:52 AM,60.1,55.9,86,30.04,10.0,NNE,5.8,-,N/A,,Overcast,20,2013-07-03 06:52:00
2:45 AM,60.8,57.2,88,30.04,9.0,North,6.9,-,N/A,,Overcast,360,2013-07-03 07:45:00
2:52 AM,60.1,57.0,90,30.03,9.0,North,6.9,-,N/A,,Overcast,10,2013-07-03 07:52:00
3:52 AM,60.1,57.9,93,30.02,8.0,North,6.9,-,N/A,,Overcast,360,2013-07-03 08:52:00
4:52 AM,60.1,57.9,93,30.02,7.0,NNE,5.8,-,N/A,,Overcast,30,2013-07-03 09:52:00
5:43 AM,60.8,57.2,88,30.03,7.0,North,5.8,-,N/A,,Overcast,10,2013-07-03 10:43:00
5:52 AM,61.0,57.9,90,30.04,6.0,North,4.6,-,N/A,,Overcast,10,2013-07-03 10:52:00
6:02 AM,60.8,57.2,88,30.04,7.0,NNE,5.8,-,N/A,,Overcast,20,2013-07-03 11:02:00
6:52 AM,62.1,59.0,90,30.04,7.0,North,4.6,-,N/A,,Overcast,10,2013-07-03 11:52:00
7:45 AM,62.6,59.0,88,30.05,8.0,North,4.6,-,N/A,,Overcast,10,2013-07-03 12:45:00
7:52 AM,62.1,59.0,90,30.05,5.0,North,4.6,-,N/A,,Overcast,10,2013-07-03 12:52:00
8:27 AM,62.6,60.8,94,30.06,2.5,NNE,5.8,-,0.03,Rain,Light Rain,30,2013-07-03 13:27:00
8:30 AM,62.6,60.8,94,30.06,1.8,North,4.6,-,0.06,Rain,Rain,10,2013-07-03 13:30:00
8:42 AM,62.6,60.8,94,30.07,1.8,Calm,Calm,-,0.11,Rain,Rain,0,2013-07-03 13:42:00
8:48 AM,60.8,60.8,100,30.07,3.0,East,3.5,-,0.12,Rain,Light Rain,100,2013-07-03 13:48:00
8:49 AM,61.0,60.1,97,30.07,3.0,East,3.5,-,0.12,Rain,Light Rain,90,2013-07-03 13:49:00
8:54 AM,60.8,60.8,100,30.07,2.5,ENE,4.6,-,0.01,Rain,Light Rain,60,2013-07-03 13:54:00
9:03 AM,60.8,60.8,100,30.07,1.5,NE,4.6,-,0.06,Rain,Rain,50,2013-07-03 14:03:00
9:13 AM,60.8,60.8,100,30.07,2.5,NNE,4.6,-,0.06,Rain,Light Rain,30,2013-07-03 14:13:00
9:34 AM,60.8,60.8,100,30.07,2.0,NNE,5.8,-,0.08,Rain,Light Rain,30,2013-07-03 14:34:00
9:52 AM,62.1,60.1,93,30.07,1.5,Calm,Calm,-,0.09,Rain,Light Rain,0,2013-07-03 14:52:00
10:24 AM,62.6,60.8,94,30.07,1.2,Calm,Calm,-,0.04,Rain,Rain,0,2013-07-03 15:24:00
10:44 AM,62.6,60.8,94,30.07,2.0,Calm,Calm,-,0.04,,Overcast,0,2013-07-03 15:44:00
10:52 AM,62.1,61.0,96,30.07,3.0,Calm,Calm,-,0.04,,Overcast,0,2013-07-03 15:52:00
11:05 AM,62.6,60.8,94,30.07,4.0,Calm,Calm,-,N/A,,Overcast,0,2013-07-03 16:05:00
11:52 AM,63.0,61.0,93,30.07,7.0,NNE,3.5,-,N/A,,Overcast,30,2013-07-03 16:52:00
12:52 PM,64.0,61.0,90,30.07,5.0,East,3.5,-,N/A,,Overcast,80,2013-07-03 17:52:00
1:52 PM,66.0,62.1,87,30.06,5.0,Calm,Calm,-,N/A,,Overcast,0,2013-07-03 18:52:00
2:21 PM,66.2,60.8,83,30.06,5.0,Calm,Calm,-,N/A,,Haze,0,2013-07-03 19:21:00
2:52 PM,66.0,62.1,87,30.06,5.0,WNW,4.6,-,N/A,,Overcast,290,2013-07-03 19:52:00
3:07 PM,64.4,62.6,94,30.06,5.0,West,3.5,-,N/A,,Overcast,280,2013-07-03 20:07:00
3:52 PM,66.0,62.1,87,30.04,5.0,Calm,Calm,-,N/A,,Overcast,0,2013-07-03 20:52:00
4:10 PM,66.2,62.6,88,30.05,5.0,Calm,Calm,-,N/A,,Overcast,0,2013-07-03 21:10:00
4:37 PM,66.2,62.6,88,30.05,6.0,SW,3.5,-,N/A,,Haze,230,2013-07-03 21:37:00
4:52 PM,68.0,63.0,84,30.05,7.0,SSW,4.6,-,N/A,,Overcast,200,2013-07-03 21:52:00
5:52 PM,66.9,63.0,87,30.04,8.0,West,5.8,-,N/A,,Overcast,260,2013-07-03 22:52:00
6:37 PM,66.2,62.6,88,30.04,9.0,West,3.5,-,N/A,,Scattered Clouds,260,2013-07-03 23:37:00
6:52 PM,68.0,62.1,81,30.04,9.0,Calm,Calm,-,N/A,,Scattered Clouds,0,2013-07-03 23:52:00
7:04 PM,66.2,62.6,88,30.04,8.0,WSW,4.6,-,N/A,,Mostly Cloudy,240,2013-07-04 00:04:00
7:52 PM,66.9,62.1,84,30.04,9.0,SW,4.6,-,N/A,,Overcast,230,2013-07-04 00:52:00
8:10 PM,66.2,62.6,88,30.04,9.0,Calm,Calm,-,N/A,,Overcast,0,2013-07-04 01:10:00
8:52 PM,64.0,62.1,93,30.05,6.0,Calm,Calm,-,N/A,,Clear,0,2013-07-04 01:52:00
9:52 PM,64.0,62.1,93,30.06,8.0,Calm,Calm,-,N/A,,Overcast,0,2013-07-04 02:52:00
10:52 PM,62.1,60.1,93,30.07,7.0,Calm,Calm,-,N/A,,Clear,0,2013-07-04 03:52:00
11:52 PM,61.0,59.0,93,30.08,7.0,Calm,Calm,-,0.01,,Clear,0,2013-07-04 04:52:00
11:59 PM,60.8,60.8,100,30.08,0.5,SSE,3.5,-,N/A,Fog,Fog,160,2013-07-04 04:59:00